TimeEST,TemperatureF,Dew PointF,Humidity,Sea Level PressureIn,VisibilityMPH,Wind Direction,Wind SpeedMPH,Gust SpeedMPH,PrecipitationIn,Events,Conditions,WindDirDegrees,DateUTC
12:53 AM,27.0,21.0,78,29.58,10.0,SSW,4.6,-,N/A,,Overcast,210,2014-02-14 05:53:00
1:53 AM,27.0,19.0,72,29.56,10.0,SSW,6.9,-,N/A,,Overcast,210,2014-02-14 06:53:00
2:53 AM,26.1,17.1,69,29.54,10.0,SSW,11.5,-,N/A,,Mostly Cloudy,210,2014-02-14 07:53:00
3:53 AM,27.0,16.0,63,29.53,10.0,SSW,8.1,-,N/A,,Overcast,200,2014-02-14 08:53:00
4:53 AM,28.9,15.1,56,29.53,10.0,SSW,8.1,-,N/A,,Overcast,200,2014-02-14 09:53:00
5:53 AM,28.9,16.0,58,29.55,10.0,SSW,10.4,-,N/A,,Overcast,200,2014-02-14 10:53:00
6:53 AM,30.0,18.0,61,29.55,10.0,SSW,10.4,-,N/A,,Overcast,210,2014-02-14 11:53:00
7:53 AM,30.9,19.0,61,29.56,10.0,SW,12.7,-,N/A,,Overcast,220,2014-02-14 12:53:00
8:53 AM,32.0,21.0,64,29.58,6.0,SW,13.8,23.0,0.00,Snow,Light Snow,230,2014-02-14 13:53:00
9:53 AM,32.0,21.9,66,29.61,7.0,WSW,20.7,32.2,0.00,,Overcast,240,2014-02-14 14:53:00
10:53 AM,33.1,19.9,59,29.65,10.0,West,21.9,28.8,N/A,,Scattered Clouds,260,2014-02-14 15:53:00
11:53 AM,33.1,21.0,61,29.68,10.0,West,11.5,21.9,N/A,,Overcast,260,2014-02-14 16:53:00
12:53 PM,32.0,21.0,64,29.69,10.0,West,13.8,23.0,N/A,,Overcast,260,2014-02-14 17:53:00
1:53 PM,33.1,19.9,59,29.69,10.0,West,16.1,20.7,N/A,,Overcast,270,2014-02-14 18:53:00
2:06 PM,33.8,19.4,56,29.64,10.0,West,13.8,20.7,N/A,,Overcast,270,2014-02-14 19:06:00
2:53 PM,34.0,19.9,56,29.70,10.0,West,13.8,-,N/A,,Partly Cloudy,260,2014-02-14 19:53:00
3:53 PM,34.0,19.0,54,29.70,10.0,West,9.2,18.4,N/A,,Clear,280,2014-02-14 20:53:00
4:53 PM,35.1,19.9,54,29.70,10.0,West,9.2,-,N/A,,Clear,270,2014-02-14 21:53:00
5:53 PM,35.1,19.0,52,29.71,10.0,WNW,3.5,-,N/A,,Mostly Cloudy,300,2014-02-14 22:53:00
6:53 PM,34.0,19.9,56,29.71,10.0,West,5.8,-,N/A,,Overcast,270,2014-02-14 23:53:00
7:53 PM,33.1,19.0,56,29.70,10.0,Calm,Calm,-,N/A,,Mostly Cloudy,0,2014-02-15 00:53:00
8:53 PM,33.1,19.0,56,29.71,10.0,NW,4.6,-,N/A,,Overcast,320,2014-02-15 01:53:00
9:29 PM,32.0,19.4,60,29.68,10.0,NW,4.6,-,N/A,,Overcast,320,2014-02-15 02:29:00
9:53 PM,32.0,19.9,61,29.73,7.0,Calm,Calm,-,0.00,Snow,Light Snow,0,2014-02-15 02:53:00
10:18 PM,30.2,23.0,75,29.68,1.8,NW,4.6,-,0.00,Snow,Light Snow,320,2014-02-15 03:18:00
10:53 PM,28.0,24.1,85,29.74,1.2,North,3.5,-,0.00,Snow,Light Snow,350,2014-02-15 03:53:00
11:14 PM,28.4,24.8,86,29.69,1.0,Calm,Calm,-,0.01,Snow,Light Snow,0,2014-02-15 04:14:00
11:32 PM,28.4,24.8,86,29.69,1.0,Calm,Calm,-,0.02,Snow,Light Snow,0,2014-02-15 04:32:00
11:53 PM,28.0,25.0,88,29.74,1.0,Calm,Calm,-,0.04,Snow,Light Snow,0,2014-02-15 04:53:00